Location: Brno
(49.2000°N, 16.6330°E)
Time: 19:44:23
(UTC+02:00)

RESURS DK-1 - Visible Passes

Search period start: 18 September 2014 00:00
Search period end: 28 September 2014 00:00
Orbit: 563 x 565 km, 69.9° (Epoch: 18 September)

Date Brightness Start Highest point End Pass type
(mag) Time Alt. Az. Time Alt. Az. Time Alt. Az.
18 Sep 4.3 20:39:26 10° NW 20:43:00 28° WSW 20:46:34 10° SSW visible
19 Sep 4.8 20:39:39 10° WNW 20:42:49 21° WSW 20:45:58 10° SSW visible
20 Sep 5.2 20:40:04 10° WNW 20:42:36 16° WSW 20:45:08 10° SW visible
21 Sep 5.4 20:40:53 10° W 20:42:22 12° WSW 20:43:51 10° WSW visible
